Fort Myers, FL

7:00 PM EDT on September 28, 2016 (GMT -0400)
Page

Weather History for KFMY - August, 2013

Change the Weather History Date:

Tuesday, August 6, 2013

  Actual Average Record
Temperature  
Mean Temperature 83 °F 84 °F  
Max Temperature 91 °F 92 °F 99 °F (1942)
Min Temperature 74 °F 75 °F 70 °F (1936)
Degree Days  
Heating Degree Days 0 0  
Month to date heating degree days 0 0  
Since 1 June heating degree days 0 0  
Since 1 July heating degree days 0 0  
Cooling Degree Days 18 18  
Month to date cooling degree days 109 108  
Year to date cooling degree days 2274 2263  
Since 1 June cooling degree days 1136 1197  
Growing Degree Days 31 (Base 50)    
Moisture  
Dew Point 74 °F    
Average Humidity 81    
Maximum Humidity 100    
Minimum Humidity 56    
Precipitation  
Precipitation 0.00 in 0.32 in 2.44 in (1939)
Month to date precipitation 1.56 1.86  
Year to date precipitation 32.10 32.79  
Sea Level Pressure  
Sea Level Pressure 29.95 in    
Wind  
Wind Speed 3 mph (North)    
Max Wind Speed 18 mph    
Max Gust Speed 23 mph    
Visibility 10 miles    
Events Thunderstorm    
T = Trace of Precipitation, MM = Missing Value Source: NWS Daily Summary

Daily Weather History Graph

Daily Weather History Graph

Search for Another Location

Airport or City:

Trip Planner

Search our weather history database for the weather conditions in past years. The results will help you decide how hot, cold, wet, or windy it might be!

Date:

Astronomy

Aug. 06, 2013 Rise Set
Actual Time 6:55 AM EDT 8:11 PM EDT
Civil Twilight 6:30 AM EDT 8:35 PM EDT
Nautical Twilight 6:01 AM EDT 9:05 PM EDT
Astronomical Twilight 5:30 AM EDT 9:35 PM EDT
Moon 6:39 AM EDT (8/6) 7:53 PM EDT (8/6)
Length of Visible Light 14h 05m
Length of Day
13h 16m
Waning Crescent, 0% of the Moon is Illuminated
Aug 6
Waning Crescent
Aug 6
New
Aug 14
First Quarter
Aug 20
Full
Aug 28
Last Quarter

Hourly Weather History & Observations

Time (EDT) Temp. Heat Index Dew Point Humidity Pressure Visibility Wind Dir Wind Speed Gust Speed Precip Events Conditions
12:53 AM 78.1 °F - 77.0 °F 96% 29.98 in 10.0 mi Calm Calm - N/A   Clear
1:53 AM 77.0 °F - 77.0 °F 100% 29.97 in 10.0 mi Calm Calm - N/A   Partly Cloudy
2:53 AM 75.9 °F - 75.9 °F 100% 29.94 in 10.0 mi Calm Calm - N/A   Clear
3:53 AM 75.9 °F - 75.9 °F 100% 29.91 in 10.0 mi Calm Calm - N/A   Clear
4:53 AM 75.0 °F - 75.0 °F 100% 29.91 in 10.0 mi Calm Calm - N/A   Clear
5:53 AM 75.0 °F - 75.0 °F 100% 29.92 in 10.0 mi SSE 3.5 mph - N/A   Clear
6:53 AM 73.9 °F - 73.9 °F 100% 29.94 in 10.0 mi Calm Calm - N/A   Clear
7:53 AM 75.0 °F - 75.0 °F 100% 29.95 in 10.0 mi Calm Calm - N/A   Clear
8:53 AM 79.0 °F - 77.0 °F 94% 29.96 in 10.0 mi Calm Calm - N/A   Clear
9:53 AM 81.0 °F 87.9 °F 77.0 °F 88% 29.97 in 10.0 mi WNW 8.1 mph - N/A   Mostly Cloudy
10:07 AM 80.6 °F 87.1 °F 77.0 °F 89% 29.97 in 10.0 mi NW 5.8 mph - N/A   Overcast
10:53 AM 82.9 °F 91.8 °F 77.0 °F 82% 29.99 in 10.0 mi NW 5.8 mph - N/A   Mostly Cloudy
11:31 AM 80.6 °F 85.4 °F 73.4 °F 79% 29.98 in 9.0 mi North 10.4 mph - N/A Thunderstorm Mostly Cloudy
11:53 AM 84.0 °F 91.9 °F 75.0 °F 74% 29.99 in 10.0 mi North 11.5 mph - N/A   Partly Cloudy
12:21 PM 84.2 °F 89.6 °F 71.6 °F 66% 29.98 in 10.0 mi NNW 5.8 mph - N/A Thunderstorm Clear
12:51 PM 84.2 °F 90.9 °F 73.4 °F 70% 29.97 in 10.0 mi WNW 4.6 mph - N/A   Clear
12:53 PM 84.9 °F 92.1 °F 73.9 °F 69% 29.97 in 10.0 mi Variable 4.6 mph - N/A   Clear
1:53 PM 88.0 °F 95.6 °F 73.0 °F 61% 29.96 in 10.0 mi Calm Calm - N/A   Scattered Clouds
2:53 PM 89.1 °F 96.0 °F 72.0 °F 57% 29.94 in 10.0 mi Variable 3.5 mph - N/A   Overcast
3:53 PM 84.9 °F 90.7 °F 72.0 °F 65% 29.93 in 10.0 mi WNW 12.7 mph - N/A   Scattered Clouds
4:12 PM 84.2 °F 89.6 °F 71.6 °F 66% 29.92 in 10.0 mi West 10.4 mph - N/A Thunderstorm Partly Cloudy
4:53 PM 86.0 °F 90.7 °F 70.0 °F 59% 29.93 in 10.0 mi Variable 4.6 mph - N/A Thunderstorm Thunderstorm
5:05 PM 84.2 °F 90.9 °F 73.4 °F 70% 29.92 in 10.0 mi ENE 4.6 mph - N/A   Scattered Clouds
5:53 PM 84.9 °F 91.4 °F 73.0 °F 67% 29.92 in 10.0 mi NE 3.5 mph - N/A   Clear
6:53 PM 84.0 °F 91.9 °F 75.0 °F 74% 29.93 in 10.0 mi ESE 6.9 mph - N/A   Mostly Cloudy
7:53 PM 82.0 °F 87.9 °F 73.9 °F 76% 29.94 in 10.0 mi East 3.5 mph - N/A   Clear
8:53 PM 80.1 °F 84.5 °F 73.9 °F 81% 29.94 in 10.0 mi ESE 3.5 mph - N/A   Clear
9:53 PM 80.1 °F 85.1 °F 75.0 °F 85% 29.96 in 10.0 mi Calm Calm - N/A   Scattered Clouds
10:53 PM 80.1 °F 85.4 °F 75.9 °F 87% 29.96 in 10.0 mi SE 3.5 mph - N/A   Clear
11:53 PM 79.0 °F - 75.0 °F 88% 29.96 in 10.0 mi East 3.5 mph - N/A   Clear